Regional Weather Roundup
Issued by NWS Green Bay, WI

Home | Current Version | Previous Version | Graphics & Text | Print | Product List | Glossary Off
Versions: 1 2 3 4 5 6 7 8 9 10 11 12 13 14 15 16 17 18 19 20 21 22 23 24 25 26 27 28 29 30 31 32 33 34 35 36 37 38 39 40 41 42 43 44 45 46 47 48 49 50

644
ASUS43 KGRB 252211
RWRGRB

NORTH-CENTRAL AND NORTHEAST WISCONSIN REGIONAL WEATHER ROUNDUP
NATIONAL WEATHER SERVICE GREEN BAY WI
500 PM CDT MON SEP 25 2017

WIZ005-009-010>012-018-019-252300-
NORTH CENTRAL WISCONSIN

CITY           SKY/WX    TMP DP  RH WIND       PRES   REMARKS
IRONWOOD       CLOUDY    60  57  89 N7        29.99R
MANITOWISH WTR NOT AVBL
ARBOR VITAE      N/A     67  63  89 NE3       29.93F
EAGLE RIVER    MOSUNNY   80  58  46 SW6       29.93R
LAND O LAKES   MOSUNNY   74  65  72 N9        29.95R
RHINELANDER    MOSUNNY   81  63  54 SW7       29.94R
PHILLIPS       CLOUDY    73  68  86 N3        29.90S
ANTIGO         SUNNY     79  62  55 S6        29.94R
TOMAHAWK       PTSUNNY   79  63  56 CALM      29.93R
MERRILL        PTSUNNY   82  65  56 SW3       29.92R
$$

WIZ013-073-252300-
NORTHEAST WISCONSIN

CITY           SKY/WX    TMP DP  RH WIND       PRES   REMARKS
IRON MOUNTAIN  MOSUNNY   85  61  44 S10       29.91R
MARINETTE      SUNNY     80  63  55 S10       29.92F
OCONTO         SUNNY     82  65  56 SE9       29.89F
$$

WIZ017-030-035>037-045-252300-
CENTRAL WISCONSIN

CITY           SKY/WX    TMP DP  RH WIND       PRES   REMARKS
MEDFORD        CLOUDY    80  65  61 S7        29.91S
WAUSAU         MOSUNNY   82  63  52 SW5       29.90R
MOSINEE        PTSUNNY   81  64  57 S8        29.92S
MARSHFIELD     CLOUDY    76  63  64 SW15      29.92R
WISC RAPIDS    CLOUDY    79  63  57 W16G28    29.92R
STEVENS POINT  MOSUNNY   82  62  51 S6        29.91R
WAUPACA        SUNNY     86  61  42 S7        29.90S
SHAWANO        SUNNY     88  60  38 S7        29.89S
CLINTONVILLE   MOSUNNY   88  59  37 S7        29.90R
WAUTOMA        PTSUNNY   88  64  44 SE7       29.89F
$$

WIZ038-039-048-051-252300-
FOX VALLEY

CITY           SKY/WX    TMP DP  RH WIND       PRES   REMARKS
NWS GREEN BAY  MOSUNNY   86  66  51 SE13      29.90F
APPLETON       MOSUNNY   86  55  35 S8        29.90F
OSHKOSH        SUNNY     86  63  45 S6        29.90F
FOND DU LAC    SUNNY     87  59  38 S8        29.91S
$$

WIZ022-050-052-252300-
EAST CENTRAL WISCONSIN

CITY           SKY/WX    TMP DP  RH WIND       PRES   REMARKS
EPHRAIM        FAIR      78  62  58 S7        29.93S
WASHINGTON ISL FAIR      73  65  74 S8        29.93S
STURGEON BAY   SUNNY     79  62  56 S9        29.94S
MANITOWOC      SUNNY     77  65  66 S10       29.94S
SHEBOYGAN      SUNNY     80  64  58 S14       29.94S
$$

LMZ563-521-522-541>543-252300-
LAKESHORE

STATION/POSITION TIME  TEMP    WIND        PRES    VSBY  WAVE
                       AIR SEA DIR/SP/G                  HT/PER
                 (UTC) (F)     (DEG/KT/KT) (MB)    (MI)  (FT/S)
SHEBOYGAN LKSHOR 2200   71     180/  7/  8 1013.4S
KEWAUNEE LKSHORE 2142   67     180/  8/  9 1013.1F
NORTHPORT PIER   2140   77     160/  7/ 11 1013.2S
N MID LAKE BUOY  2150   70 68  180/  6/  8 1014.1F         1/ 4
S GREEN BAY BUOY 2200   77 72  130/  8/ 10 1012.7
SISTER BAY LKSHO 2119   83     160/ 11/ 15   N/A
MENOMINEE LKSHOR 2142   75     150/ 10/ 12 1012.7F
$$




USA.gov is the U.S. government's official web portal to all federal, state and local government web resources and services.